Location: Clyde
(45.1830°S, 169.3170°E)
Time: 08:37:35
(UTC+13:00)

Cosmos 1486 Rocket - Pass Details

Date: 24 January 2019
Orbit: 759 x 783 km, 74.1° (Epoch: 17 February)

Event Time Altitude Azimuth Distance (km) Brightness Sun altitude
Exits shadow 22:36:52 - 359° (N) 2,891 6.6 -11.5°
Reaches altitude 10° 22:38:27 10° 3° (N) 2,299 6.0 -11.7°
Maximum altitude 22:43:26 47° 76° (ENE) 1,017 4.3 -12.3°
Drops below altitude 10° 22:48:30 10° 148° (SSE) 2,339 6.7 -12.9°
Sets 22:50:58 0° 153° (SSE) 3,277 7.5 -13.2°
